TimeEDT,TemperatureF,Dew PointF,Humidity,Sea Level PressureIn,VisibilityMPH,Wind Direction,Wind SpeedMPH,Gust SpeedMPH,PrecipitationIn,Events,Conditions,WindDirDegrees,DateUTC
12:53 AM,27.0,21.0,78,30.12,10.0,Calm,Calm,-,N/A,,Clear,0,2013-03-31 04:53:00
1:53 AM,25.0,19.9,81,30.12,10.0,Calm,Calm,-,N/A,,Clear,0,2013-03-31 05:53:00
2:53 AM,24.1,19.9,84,30.11,10.0,Calm,Calm,-,N/A,,Clear,0,2013-03-31 06:53:00
3:53 AM,25.0,19.0,78,30.12,10.0,Calm,Calm,-,N/A,,Clear,0,2013-03-31 07:53:00
4:53 AM,24.1,18.0,77,30.10,10.0,Calm,Calm,-,N/A,,Clear,0,2013-03-31 08:53:00
5:53 AM,24.1,19.0,81,30.09,10.0,Calm,Calm,-,N/A,,Clear,0,2013-03-31 09:53:00
6:53 AM,23.0,18.0,81,30.09,10.0,Calm,Calm,-,N/A,,Clear,0,2013-03-31 10:53:00
7:53 AM,27.0,21.9,81,30.09,10.0,Calm,Calm,-,N/A,,Clear,0,2013-03-31 11:53:00
8:53 AM,34.0,24.1,67,30.07,10.0,Calm,Calm,-,N/A,,Clear,0,2013-03-31 12:53:00
9:53 AM,39.9,23.0,51,30.05,8.0,Variable,3.5,-,N/A,,Clear,0,2013-03-31 13:53:00
10:53 AM,45.0,24.1,44,30.03,10.0,South,8.1,-,N/A,,Clear,170,2013-03-31 14:53:00
11:53 AM,48.0,25.0,41,30.00,10.0,Variable,3.5,-,N/A,,Clear,0,2013-03-31 15:53:00
12:53 PM,53.1,24.1,32,29.95,10.0,SSW,9.2,-,N/A,,Clear,200,2013-03-31 16:53:00
1:53 PM,55.0,23.0,29,29.92,10.0,South,25.3,32.2,N/A,,Clear,180,2013-03-31 17:53:00
2:53 PM,55.0,23.0,29,29.88,10.0,South,18.4,26.5,N/A,,Scattered Clouds,190,2013-03-31 18:53:00
3:53 PM,55.0,25.0,31,29.86,10.0,SSW,19.6,29.9,N/A,,Mostly Cloudy,200,2013-03-31 19:53:00
4:53 PM,54.0,28.0,37,29.84,10.0,South,11.5,16.1,N/A,,Overcast,180,2013-03-31 20:53:00
5:53 PM,53.1,28.0,38,29.82,10.0,South,16.1,-,N/A,,Overcast,170,2013-03-31 21:53:00
6:53 PM,51.1,33.1,50,29.83,10.0,SSW,20.7,27.6,0.00,Rain,Light Rain,200,2013-03-31 22:53:00
7:53 PM,45.0,37.0,74,29.83,9.0,South,10.4,-,0.01,Rain,Light Rain,170,2013-03-31 23:53:00
8:50 PM,42.8,37.4,81,29.80,5.0,South,6.9,-,0.04,Rain,Light Rain,170,2013-04-01 00:50:00
8:53 PM,43.0,37.9,82,29.82,5.0,SSE,5.8,-,0.04,Rain,Light Rain,160,2013-04-01 00:53:00
9:26 PM,42.8,39.2,87,29.79,6.0,Calm,Calm,-,0.02,Rain,Light Rain,0,2013-04-01 01:26:00
9:53 PM,42.1,39.0,89,29.80,5.0,Calm,Calm,-,0.05,Rain,Light Rain,0,2013-04-01 01:53:00
10:53 PM,42.1,37.9,85,29.77,4.0,SSE,3.5,-,0.08,Rain,Light Rain,160,2013-04-01 02:53:00
11:53 PM,41.0,37.9,89,29.74,5.0,South,3.5,-,0.09,Rain,Light Rain,180,2013-04-01 03:53:00